IWG1,2015-08-27T10:55:51.370, 26.078796, -80.154362,,  -16.0,    7.0,    0.0,  0.0,  0.0,  0.1,0.000,   -0.0, 119.1, 119.1,   0.0,  -0.7,  -0.5,,,  24.5, -79.8,  24.5,1012.994,,1022.737,,,, 91.7, -0.6,  77.9, -41.0
IWG1,2015-08-27T10:55:52.001, 26.078796, -80.154362,,  -15.8,    7.0,    0.0,  0.0,  0.0,  0.1,0.000,   -0.0, 119.1, 119.1,   0.0,  -0.7,  -0.5,,,  24.5, -80.2,  24.5,1012.994,,1022.982,,,, 91.6, -0.6,  77.9, -41.0
IWG1,2015-08-27T10:55:53.002, 26.078796, -80.154362,,  -15.7,    7.0,    0.0,  0.0,  0.0,  0.1,0.000,    0.0, 119.1, 119.1,   0.0,  -0.7,  -0.5,,,  24.5, -80.0,  24.5,1012.994,,1022.697,,,, 91.6, -0.6,  77.9, -41.0
IWG1,2015-08-27T10:55:54.001, 26.078796, -80.154362,,  -15.6,    7.0,    0.0,  0.0,  0.0,  0.1,0.000,    0.0, 119.1, 119.1,   0.0,  -0.7,  -0.5,,,  24.5, -80.1,  24.5,1012.994,,1023.022,,,, 91.6, -0.6,  77.9, -41.0
IWG1,2015-08-27T10:55:55.000, 26.078796, -80.154362,,  -15.6,    7.0,    0.0,  0.0,  0.0,  0.1,0.000,    0.0, 119.1, 119.1,   0.0,  -0.7,  -0.5,,,  24.5, -80.0,  24.5,1012.994,,1023.104,,,, 91.6, -0.6,  77.9, -41.0
IWG1,2015-08-27T10:55:56.001, 26.078796, -80.154362,,  -15.5,    7.0,    0.0,  0.0,  0.0,  0.1,0.000,   -0.0, 119.1, 119.1,   0.0,  -0.7,  -0.5,,,  24.5, -79.8,  24.5,1012.994,,1022.656,,,, 91.6, -0.6,  77.9, -41.0
IWG1,2015-08-27T10:55:57.001, 26.078796, -80.154362,,  -15.3,    7.0,,  0.0,  0.0,  0.1,0.000,   -0.0, 119.1, 119.1,   0.0,  -0.7,  -0.5,,,  24.5, -79.8,  24.5,1012.994,,1022.778,,,, 91.6, -0.6,  77.9, -41.0
IWG1,2015-08-27T10:55:58.001, 26.078796, -80.154362,,  -15.2,    7.0,,  0.0,  0.0,  0.1,0.000,   -0.0, 119.1, 119.1,   0.0,  -0.7,  -0.5,,,  24.5, -79.7,  24.5,1012.994,,1022.819,,,, 91.6, -0.6,  77.9, -41.0
IWG1,2015-08-27T10:55:59.001, 26.078796, -80.154362,,  -15.1,    7.0,,  0.0,  0.0,  0.1,0.000,    0.0, 119.1, 119.1,   0.0,  -0.7,  -0.5,,,  24.5, -80.3,  24.5,1012.994,,1022.900,,,, 91.6, -0.6,  77.9, -41.0
IWG1,2015-08-27T10:56:00.002, 26.078796, -80.154362,,  -14.9,    7.0,,  0.0,  0.0,  0.1,0.000,    0.0, 119.1, 119.1,   0.0,  -0.7,  -0.5,,,  24.5, -80.0,  24.5,1012.994,,1022.778,,,, 91.6, -0.5,  77.9, -41.0
IWG1,2015-08-27T10:56:01.002, 26.078796, -80.154362,,  -14.8,    6.0,,  0.0,  0.0,  0.1,0.000,   -0.0, 119.1, 119.1,   0.0,  -0.7,  -0.5,,,  24.5, -80.1,  24.5,1013.030,,1022.697,,,, 91.6, -0.5,  77.9, -41.0
IWG1,2015-08-27T10:56:02.002, 26.078796, -80.154362,,  -14.8,    6.0,,  0.0,  0.0,  0.1,0.000,   -0.0, 119.1, 119.1,   0.0,  -0.7,  -0.5,,,  24.5, -80.1,  24.5,1013.030,,1023.104,,,, 91.6, -0.5,  77.9, -41.0
IWG1,2015-08-27T10:56:03.001, 26.078796, -80.154362,,  -14.8,    7.0,,  0.0,  0.0,  0.1,0.000,    0.0, 119.1, 119.1,   0.0,  -0.7,  -0.5,,,  24.5, -80.0,  24.5,1012.994,,1022.819,,,, 91.6, -0.5,  77.9, -41.0
IWG1,2015-08-27T10:56:04.001, 26.078796, -80.154362,,  -14.8,    7.0,,  0.0,  0.0,  0.1,0.000,    0.0, 119.1, 119.1,   0.0,  -0.7,  -0.5,,,  24.5, -79.8,  24.5,1012.994,,1022.859,,,, 91.6, -0.5,  77.9, -41.0
IWG1,2015-08-27T10:56:05.002, 26.078796, -80.154362,,  -14.8,    7.0,,  0.0,  0.0,  0.1,0.000,    0.0, 119.1, 119.1,   0.0,  -0.7,  -0.5,,,  24.5, -80.0,  24.5,1012.994,,1022.982,,,, 91.6, -0.5,  78.0, -41.0
IWG1,2015-08-27T10:56:06.002, 26.078796, -80.154362,,  -14.8,    7.0,,  0.0,  0.0,  0.1,0.000,    0.0, 119.1, 119.1,   0.0,  -0.7,  -0.5,,,  24.5, -79.7,  24.5,1012.994,,1020.988,,,, 91.6, -0.5,  78.0, -41.0
IWG1,2015-08-27T10:56:07.002, 26.078796, -80.154362,,  -14.8,    7.0,,  0.0,  0.0,  0.1,0.000,   -0.0, 119.1, 119.1,   0.0,  -0.7,  -0.5,,,  24.5, -80.3,  24.5,1012.994,,1022.615,,,, 91.6, -0.5,  78.0, -41.0
IWG1,2015-08-27T10:56:08.002, 26.078796, -80.154362,,  -14.8,    7.0,,  0.0,  0.0,  0.1,0.000,    0.0, 119.1, 119.1,   0.0,  -0.7,  -0.5,,,  24.5, -79.8,  24.5,1012.994,,1022.859,,,, 91.6, -0.5,  78.0, -41.0
IWG1,2015-08-27T10:56:09.001, 26.078796, -80.154362,,  -14.8,    7.0,,  0.0,  0.0,  0.1,0.000,    0.0, 119.1, 119.1,   0.0,  -0.7,  -0.5,,,  24.5, -79.9,  24.5,1012.994,,1022.819,,,, 91.6, -0.5,  78.0, -41.0
IWG1,2015-08-27T10:56:10.000, 26.078796, -80.154362,,  -14.7,    7.0,,  0.0,  0.0,  0.1,0.000,    0.0, 119.1, 119.1,   0.0,  -0.7,  -0.5,,,  24.5, -80.2,  24.5,1012.994,,1022.982,,,, 91.6, -0.5,  78.0, -41.0
IWG1,2015-08-27T10:56:11.002, 26.078796, -80.154362,,  -14.7,    7.0,,  0.0,  0.0,  0.1,0.000,   -0.0, 119.1, 119.1,   0.0,  -0.7,  -0.5,,,  24.5, -80.1,  24.5,1012.994,,1022.697,,,, 91.6, -0.5,  78.0, -41.0
IWG1,2015-08-27T10:56:12.002, 26.078796, -80.154362,,  -14.6,    7.0,,  0.0,  0.0,  0.1,0.000,    0.0, 119.1, 119.1,   0.0,  -0.7,  -0.5,,,  24.5, -79.8,  24.5,1012.994,,1022.819,,,, 91.6, -0.5,  78.0, -41.0
IWG1,2015-08-27T10:56:13.002, 26.078796, -80.154362,,  -14.6,    7.0,,  0.0,  0.0,  0.1,0.000,    0.0, 119.1, 119.1,   0.0,  -0.7,  -0.5,,,  24.5, -79.7,  24.5,1012.994,,1023.307,,,, 91.6, -0.5,  78.0, -41.0
IWG1,2015-08-27T10:56:14.002, 26.078796, -80.154362,,  -14.5,    7.0,,  0.0,  0.0,  0.1,0.000,    0.0, 119.1, 119.1,   0.0,  -0.7,  -0.5,,,  24.5, -79.7,  24.5,1012.994,,1022.941,,,, 91.6, -0.5,  78.0, -41.0
IWG1,2015-08-27T10:56:15.002, 26.078796, -80.154362,,  -14.5,    7.0,,  0.0,  0.0,  0.1,0.000,    0.0, 119.1, 119.1,   0.0,  -0.7,  -0.5,,,  24.5, -79.7,  24.5,1012.994,,1023.185,,,, 91.6, -0.5,  78.0, -41.0
IWG1,2015-08-27T10:56:16.001, 26.078796, -80.154362,,  -14.4,    7.0,,  0.0,  0.0,  0.1,0.000,    0.0, 119.1, 119.1,   0.0,  -0.7,  -0.5,,,  24.5, -80.1,  24.5,1012.994,,1023.388,,,, 91.6, -0.5,  78.0, -41.0
IWG1,2015-08-27T10:56:17.000, 26.078796, -80.154362,,  -14.4,    7.0,,  0.0,  0.0,  0.1,0.000,   -0.0, 119.1, 119.1,   0.0,  -0.7,  -0.5,,,  24.5, -79.8,  24.5,1012.994,,1022.900,,,, 91.6, -0.5,  78.0, -41.0
IWG1,2015-08-27T10:56:18.001, 26.078796, -80.154362,,  -14.3,    7.0,,  0.0,  0.0,  0.1,0.000,   -0.0, 119.1, 119.1,   0.0,  -0.7,  -0.5,,,  24.5, -80.0,  24.5,1012.994,,1022.778,,,, 91.6, -0.5,  78.0, -41.0
IWG1,2015-08-27T10:56:19.001, 26.078796, -80.154362,,  -14.3,    7.0,,  0.0,  0.0,  0.1,0.000,   -0.0, 119.1, 119.1,   0.0,  -0.7,  -0.5,,,  24.5, -79.8,  24.5,1012.994,,1022.656,,,, 91.5, -0.5,  78.0, -41.0
IWG1,2015-08-27T10:56:20.002, 26.078796, -80.154362,,  -14.3,    7.0,,  0.0,  0.0,  0.1,0.000,   -0.0, 119.1, 119.1,   0.0,  -0.7,  -0.5,,,  24.5, -79.9,  24.5,1012.994,,1022.656,,,, 91.5, -0.5,  78.0, -41.0
IWG1,2015-08-27T10:56:21.002, 26.078796, -80.154362,,  -14.3,    6.0,,  0.0,  0.0,  0.1,0.000,   -0.0, 119.1, 119.1,   0.0,  -0.7,  -0.5,,,  24.5, -80.0,  24.5,1013.030,,1023.185,,,, 91.5, -0.5,  78.0, -41.0
IWG1,2015-08-27T10:56:22.002, 26.078796, -80.154362,,  -14.2,    6.0,,  0.0,  0.0,  0.1,0.000,   -0.0, 119.1, 119.1,   0.0,  -0.7,  -0.5,,,  24.5, -79.9,  24.5,1013.030,,1022.778,,,, 91.5, -0.5,  78.0, -41.0
IWG1,2015-08-27T10:56:23.000, 26.078796, -80.154362,,  -14.2,    6.0,,  0.0,  0.0,  0.1,0.000,   -0.0, 119.1, 119.1,   0.0,  -0.7,  -0.5,,,  24.5, -80.1,  24.5,1013.030,,1022.941,,,, 91.5, -0.5,  78.0, -41.0
IWG1,2015-08-27T10:56:24.000, 26.078796, -80.154362,,  -14.2,    6.0,,  0.0,  0.0,  0.1,0.000,   -0.0, 119.1, 119.1,   0.0,  -0.7,  -0.5,,,  24.5, -80.1,  24.5,1013.030,,1022.982,,,, 91.5, -0.5,  78.0, -41.0
IWG1,2015-08-27T10:56:25.001, 26.078796, -80.154362,,  -14.2,    6.0,,  0.0,  0.0,  0.1,0.000,   -0.0, 119.1, 119.1,   0.0,  -0.7,  -0.5,,,  24.5, -80.0,  24.5,1013.030,,1022.982,,,, 91.5, -0.5,  78.0, -41.0
IWG1,2015-08-27T10:56:26.002, 26.078796, -80.154362,,  -14.3,    6.0,,  0.0,  0.0,  0.1,0.000,   -0.0, 119.1, 119.1,   0.0,  -0.7,  -0.5,,,  24.5, -80.0,  24.5,1013.030,,1023.226,,,, 91.5, -0.5,  78.0, -41.0
IWG1,2015-08-27T10:56:27.001, 26.078796, -80.154362,,  -14.3,    6.0,,  0.0,  0.0,  0.1,0.000,   -0.0, 119.1, 119.1,   0.0,  -0.7,  -0.5,,,  24.5, -80.0,  24.5,1013.030,,1023.022,,,, 91.5, -0.5,  78.0, -41.0
IWG1,2015-08-27T10:56:28.001, 26.078796, -80.154362,,  -14.4,    6.0,,  0.0,  0.0,  0.1,0.000,   -0.0, 119.1, 119.1,   0.0,  -0.7,  -0.5,,,  24.5, -80.1,  24.5,1013.030,,1022.697,,,, 91.5, -0.4,  78.0, -41.0
IWG1,2015-08-27T10:56:29.001, 26.078796, -80.154362,,  -14.4,    6.0,,  0.0,  0.0,  0.1,0.000,   -0.0, 119.1, 119.1,   0.0,  -0.7,  -0.5,,,  24.5, -80.1,  24.5,1013.030,,1022.900,,,, 91.5, -0.5,  78.0, -41.0
IWG1,2015-08-27T10:56:30.001, 26.078796, -80.154362,,  -14.4,    6.0,,  0.0,  0.0,  0.1,0.000,    0.0, 119.1, 119.1,   0.0,  -0.7,  -0.5,,,  24.5, -79.7,  24.5,1013.030,,1022.819,,,, 91.5, -0.4,  78.0, -41.0
IWG1,2015-08-27T10:56:31.002, 26.078796, -80.154362,,  -14.5,    6.0,,  0.0,  0.0,  0.1,0.000,    0.0, 119.1, 119.1,   0.0,  -0.7,  -0.5,,,  24.5, -79.8,  24.5,1013.030,,1022.900,,,, 91.5, -0.4,  78.0, -41.0
IWG1,2015-08-27T10:56:32.002, 26.078796, -80.154362,,  -14.5,    6.0,,  0.0,  0.0,  0.1,0.000,   -0.0, 119.1, 119.1,   0.0,  -0.7,  -0.5,,,  24.5, -79.9,  24.5,1013.030,,1023.266,,,, 91.5, -0.4,  78.0, -41.0
IWG1,2015-08-27T10:56:33.002, 26.078796, -80.154362,,  -14.5,    6.0,,  0.0,  0.0,  0.1,0.000,   -0.0, 119.1, 119.1,   0.0,  -0.7,  -0.5,,,  24.5, -80.0,  24.5,1013.030,,1023.226,,,, 91.5, -0.4,  78.0, -41.0
IWG1,2015-08-27T10:56:34.001, 26.078796, -80.154362,,  -14.6,    6.0,,  0.0,  0.0,  0.1,0.000,   -0.0, 119.1, 119.1,   0.0,  -0.7,  -0.5,,,  24.5, -80.1,  24.5,1013.030,,1022.982,,,, 91.5, -0.4,  78.0, -41.0
IWG1,2015-08-27T10:56:35.002, 26.078796, -80.154362,,  -14.6,    6.0,,  0.0,  0.0,  0.1,0.000,    0.0, 119.1, 119.1,   0.0,  -0.7,  -0.5,,,  24.5, -80.0,  24.5,1013.030,,1022.900,,,, 91.5, -0.4,  78.0, -41.0
IWG1,2015-08-27T10:56:36.002, 26.078796, -80.154362,,  -14.7,    6.0,,  0.0,  0.0,  0.1,0.000,   -0.0, 119.1, 119.1,   0.0,  -0.7,  -0.5,,,  24.5, -79.8,  24.5,1013.030,,1022.900,,,, 91.5, -0.4,  78.0, -41.0
IWG1,2015-08-27T10:56:37.002, 26.078796, -80.154362,,  -14.7,    6.0,,  0.0,  0.0,  0.1,0.000,   -0.0, 119.1, 119.1,   0.0,  -0.7,  -0.5,,,  24.5, -80.0,  24.5,1013.030,,1022.859,,,, 91.5, -0.4,  78.0, -41.0
IWG1,2015-08-27T10:56:38.001, 26.078796, -80.154362,,  -14.7,    6.0,,  0.0,  0.0,  0.1,0.000,    0.0, 119.1, 119.1,   0.0,  -0.7,  -0.5,,,  24.5, -80.0,  24.5,1013.030,,1022.859,,,, 91.5, -0.4,  78.0, -41.0
IWG1,2015-08-27T10:56:39.001, 26.078796, -80.154362,,  -14.7,    6.0,,  0.0,  0.0,  0.1,0.000,    0.0, 119.1, 119.1,   0.0,  -0.7,  -0.5,,,  24.5, -79.9,  24.5,1013.030,,1022.778,,,, 91.5, -0.4,  78.0, -40.9
IWG1,2015-08-27T10:56:40.002, 26.078796, -80.154362,,  -14.7,    6.0,,  0.0,  0.0,  0.1,0.000,    0.0, 119.1, 119.1,   0.0,  -0.7,  -0.5,,,  24.5, -80.1,  24.5,1013.030,,1022.941,,,, 91.5, -0.4,  78.0, -40.9
IWG1,2015-08-27T10:56:41.001, 26.078796, -80.154362,,  -14.6,    6.0,,  0.0,  0.0,  0.1,0.000,   -0.0, 119.1, 119.1,   0.0,  -0.7,  -0.5,,,  24.5, -79.7,  24.5,1013.030,,1022.941,,,, 91.5, -0.4,  78.0, -40.9
IWG1,2015-08-27T10:56:42.001, 26.078796, -80.154362,,  -14.6,    6.0,,  0.0,  0.0,  0.1,0.000,   -0.0, 119.1, 119.1,   0.0,  -0.7,  -0.5,,,  24.5, -80.1,  24.5,1013.030,,1022.737,,,, 91.5, -0.4,  78.0, -40.9
IWG1,2015-08-27T10:56:43.002, 26.078796, -80.154362,,  -14.6,    6.0,,  0.0,  0.0,  0.1,0.000,   -0.0, 119.1, 119.1,   0.0,  -0.7,  -0.5,,,  24.5, -79.8,  24.5,1013.030,,1022.982,,,, 91.5, -0.4,  78.0, -40.9
IWG1,2015-08-27T10:56:44.001, 26.078796, -80.154362,,  -14.6,    6.0,,  0.0,  0.0,  0.1,0.000,   -0.0, 119.1, 119.1,   0.0,  -0.7,  -0.5,,,  24.5, -79.9,  24.5,1013.030,,1022.941,,,, 91.5, -0.4,  78.0, -40.9
IWG1,2015-08-27T10:56:45.002, 26.078796, -80.154362,,  -14.5,    6.0,,  0.0,  0.0,  0.1,0.000,   -0.0, 119.1, 119.1,   0.0,  -0.7,  -0.5,,,  24.5, -79.8,  24.5,1013.030,,1023.144,,,, 91.5, -0.4,  78.0, -40.9
IWG1,2015-08-27T10:56:46.002, 26.078796, -80.154362,,  -14.5,    6.0,,  0.0,  0.0,  0.1,0.000,    0.0, 119.1, 119.1,   0.0,  -0.7,  -0.5,,,  24.5, -80.1,  24.5,1013.030,,1022.900,,,, 91.5, -0.4,  78.0, -40.9
IWG1,2015-08-27T10:56:47.002, 26.078796, -80.154362,,  -14.4,    6.0,,  0.0,  0.0,  0.1,0.000,    0.0, 119.1, 119.1,   0.0,  -0.7,  -0.5,,,  24.5, -80.0,  24.5,1013.030,,1022.941,,,, 91.4, -0.4,  78.0, -40.9
IWG1,2015-08-27T10:56:48.001, 26.078796, -80.154362,,  -14.3,    6.0,,  0.0,  0.0,  0.1,0.000,    0.0, 119.1, 119.1,   0.0,  -0.7,  -0.5,,,  24.5, -79.7,  24.5,1013.030,,1023.022,,,, 91.4, -0.4,  78.0, -40.9
IWG1,2015-08-27T10:56:49.001, 26.078796, -80.154362,,  -14.2,    6.0,,  0.0,  0.0,  0.1,0.000,    0.0, 119.1, 119.1,   0.0,  -0.7,  -0.5,,,  24.5, -79.8,  24.5,1013.030,,1023.185,,,, 91.4, -0.4,  78.0, -40.9
IWG1,2015-08-27T10:56:50.002, 26.078796, -80.154362,,  -14.2,    6.0,,  0.0,  0.0,  0.1,0.000,   -0.0, 119.1, 119.1,   0.0,  -0.7,  -0.5,,,  24.5, -80.2,  24.5,1013.030,,1023.104,,,, 91.4, -0.4,  78.0, -40.9
IWG1,2015-08-27T10:56:51.001, 26.078796, -80.154362,,  -14.2,    6.0,,  0.0,  0.0,  0.1,0.000,    0.0, 119.1, 119.1,   0.0,  -0.7,  -0.5,,,  24.5, -80.1,  24.5,1013.030,,1023.022,,,, 91.4, -0.4,  78.0, -40.9
IWG1,2015-08-27T10:56:52.001, 26.078796, -80.154362,,  -14.2,    6.0,,  0.0,  0.0,  0.1,0.000,    0.0, 119.1, 119.1,   0.0,  -0.7,  -0.5,,,  24.5, -80.1,  24.5,1013.030,,1022.859,,,, 91.4, -0.4,  78.0, -40.9
IWG1,2015-08-27T10:56:53.001, 26.078796, -80.154362,,  -14.1,    6.0,,  0.0,  0.0,  0.1,0.000,   -0.0, 119.1, 119.1,   0.0,  -0.7,  -0.5,,,  24.5, -79.8,  24.5,1013.030,,1022.819,,,, 91.4, -0.4,  78.0, -40.9
IWG1,2015-08-27T10:56:54.001, 26.078796, -80.154362,,  -14.0,    6.0,,  0.0,  0.0,  0.1,0.000,   -0.0, 119.1, 119.1,   0.0,  -0.7,  -0.5,,,  24.5, -80.1,  24.5,1013.030,,1022.982,,,, 91.4, -0.4,  78.0, -40.9
IWG1,2015-08-27T10:56:55.001, 26.078796, -80.154362,,  -14.0,    6.0,,  0.0,  0.0,  0.1,0.000,   -0.0, 119.1, 119.1,   0.0,  -0.7,  -0.5,,,  24.5, -80.0,  24.5,1013.030,,1022.900,,,, 91.4, -0.4,  78.0, -40.9
IWG1,2015-08-27T10:56:56.002, 26.078796, -80.154362,,  -13.9,    6.0,,  0.0,  0.0,  0.1,0.000,   -0.0, 119.1, 119.1,   0.0,  -0.7,  -0.5,,,  24.5, -80.0,  24.5,1013.030,,1023.185,,,, 91.4, -0.3,  78.0, -40.9
IWG1,2015-08-27T10:56:57.005, 26.078796, -80.154362,,  -13.9,    6.0,,  0.0,  0.0,  0.1,0.000,   -0.0, 119.1, 119.1,   0.0,  -0.7,  -0.5,,,  24.5, -80.2,  24.5,1013.030,,1023.185,,,, 91.4, -0.3,  78.0, -40.9
IWG1,2015-08-27T10:56:58.002, 26.078796, -80.154362,,  -13.8,    6.0,,  0.0,  0.0,  0.1,0.000,   -0.0, 119.1, 119.1,   0.0,  -0.7,  -0.5,,,  24.5, -80.1,  24.5,1013.030,,1022.859,,,, 91.4, -0.3,  78.0, -40.9
IWG1,2015-08-27T10:56:59.002, 26.078796, -80.154362,,  -13.8,    6.0,,  0.0,  0.0,  0.1,0.000,   -0.0, 119.1, 119.1,   0.0,  -0.7,  -0.5,,,  24.5, -79.8,  24.5,1013.030,,1022.941,,,, 91.4, -0.3,  78.1, -40.9
IWG1,2015-08-27T10:57:00.001, 26.078796, -80.154362,,  -13.8,    6.0,,  0.0,  0.0,  0.1,0.000,    0.0, 119.1, 119.1,   0.0,  -0.7,  -0.5,,,  24.5, -79.9,  24.5,1013.030,,1022.819,,,, 91.4, -0.3,  78.1, -40.9
IWG1,2015-08-27T10:57:01.002, 26.078796, -80.154362,,  -13.8,    6.0,,  0.0,  0.0,  0.1,0.000,    0.0, 119.1, 119.1,   0.0,  -0.7,  -0.5,,,  24.5, -80.0,  24.5,1013.030,,1022.941,,,, 91.4, -0.3,  78.1, -40.9
IWG1,2015-08-27T10:57:02.003, 26.078796, -80.154362,,  -13.7,    6.0,,  0.0,  0.0,  0.1,0.000,    0.0, 119.1, 119.1,   0.0,  -0.7,  -0.5,,,  24.5, -79.8,  24.5,1013.030,,1023.104,,,, 91.4, -0.3,  78.1, -40.9
IWG1,2015-08-27T10:57:03.002, 26.078796, -80.154362,,  -13.7,    6.0,,  0.0,  0.0,  0.1,0.000,    0.0, 119.1, 119.1,   0.0,  -0.7,  -0.5,,,  24.5, -79.8,  24.5,1013.030,,1023.144,,,, 91.4, -0.3,  78.1, -40.9
IWG1,2015-08-27T10:57:04.002, 26.078796, -80.154362,,  -13.7,    6.0,,  0.0,  0.0,  0.1,0.000,    0.0, 119.1, 119.1,   0.0,  -0.7,  -0.5,,,  24.5, -80.1,  24.5,1013.030,,1023.104,,,, 91.4, -0.3,  78.1, -40.9
IWG1,2015-08-27T10:57:05.002, 26.078796, -80.154362,,  -13.6,    6.0,,  0.0,  0.0,  0.1,0.000,    0.0, 119.1, 119.1,   0.0,  -0.7,  -0.5,,,  24.5, -79.9,  24.5,1013.030,,1023.104,,,, 91.4, -0.3,  78.1, -40.9
IWG1,2015-08-27T10:57:06.002, 26.078796, -80.154362,,  -13.6,    6.0,,  0.0,  0.0,  0.1,0.000,    0.0, 119.1, 119.1,   0.0,  -0.7,  -0.5,,,  24.5, -80.1,  24.5,1013.030,,1023.266,,,, 91.4, -0.3,  78.1, -40.9
IWG1,2015-08-27T10:57:07.000, 26.078796, -80.154362,,  -13.6,    6.0,,  0.0,  0.0,  0.1,0.000,   -0.0, 119.1, 119.1,   0.0,  -0.7,  -0.5,,,  24.5, -80.1,  24.5,1013.030,,1023.063,,,, 91.4, -0.3,  78.1, -40.9
IWG1,2015-08-27T10:57:08.002, 26.078796, -80.154362,,  -13.6,    6.0,,  0.0,  0.0,  0.1,0.000,    0.0, 119.1, 119.1,   0.0,  -0.7,  -0.5,,,  24.5, -79.7,  24.5,1013.030,,1023.063,,,, 91.4, -0.3,  78.1, -40.9
IWG1,2015-08-27T10:57:09.001, 26.078796, -80.154362,,  -13.5,    6.0,,  0.0,  0.0,  0.1,0.000,    0.0, 119.1, 119.1,   0.0,  -0.7,  -0.5,,,  24.5, -79.9,  24.5,1013.030,,1023.429,,,, 91.4, -0.3,  78.1, -40.9
IWG1,2015-08-27T10:57:10.002, 26.078796, -80.154362,,  -13.5,    6.0,,  0.0,  0.0,  0.1,0.000,    0.0, 119.1, 119.1,   0.0,  -0.7,  -0.5,,,  24.5, -80.2,  24.5,1013.030,,1023.022,,,, 91.4, -0.3,  78.1, -40.9
IWG1,2015-08-27T10:57:11.001, 26.078796, -80.154362,,  -13.4,    6.0,,  0.0,  0.0,  0.1,0.000,    0.0, 119.1, 119.1,   0.0,  -0.7,  -0.5,,,  24.5, -80.2,  24.5,1013.030,,1023.144,,,, 91.4, -0.3,  78.1, -40.9
IWG1,2015-08-27T10:57:12.001, 26.078796, -80.154362,,  -13.4,    6.0,,  0.0,  0.0,  0.1,0.000,    0.0, 119.1, 119.1,   0.0,  -0.7,  -0.5,,,  24.5, -80.0,  24.5,1013.030,,1023.104,,,, 91.4, -0.3,  78.1, -40.9
IWG1,2015-08-27T10:57:13.000, 26.078796, -80.154362,,  -13.3,    6.0,,  0.0,  0.0,  0.1,0.000,   -0.0, 119.1, 119.1,   0.0,  -0.7,  -0.5,,,  24.5, -80.2,  24.5,1013.030,,1023.226,,,, 91.4, -0.3,  78.1, -40.9
IWG1,2015-08-27T10:57:14.002, 26.078796, -80.154362,,  -13.2,    6.0,,  0.0,  0.0,  0.1,0.000,   -0.0, 119.1, 119.1,   0.0,  -0.7,  -0.5,,,  24.5, -79.8,  24.5,1013.030,,1023.348,,,, 91.3, -0.3,  78.1, -40.9
IWG1,2015-08-27T10:57:15.002, 26.078796, -80.154362,,  -13.1,    6.0,,  0.0,  0.0,  0.1,0.000,   -0.0, 119.1, 119.1,   0.0,  -0.7,  -0.5,,,  24.5, -79.8,  24.5,1013.030,,1022.941,,,, 91.3, -0.3,  78.1, -40.9
IWG1,2015-08-27T10:57:16.002, 26.078796, -80.154362,,  -13.0,    5.0,,  0.0,  0.0,  0.1,0.000,   -0.0, 119.1, 119.1,   0.0,  -0.7,  -0.5,,,  24.5, -79.6,  24.5,1013.067,,1023.226,,,, 91.3, -0.3,  78.1, -40.9
IWG1,2015-08-27T10:57:17.002, 26.078796, -80.154362,,  -12.9,    5.0,,  0.0,  0.0,  0.1,0.000,   -0.0, 119.1, 119.1,   0.0,  -0.7,  -0.5,,,  24.5, -80.0,  24.5,1013.067,,1023.063,,,, 91.3, -0.3,  78.1, -40.9
IWG1,2015-08-27T10:57:18.002, 26.078796, -80.154362,,  -12.8,    5.0,,  0.0,  0.0,  0.1,0.000,   -0.0, 119.1, 119.1,   0.0,  -0.7,  -0.5,,,  24.5, -80.1,  24.5,1013.067,,1022.900,,,, 91.3, -0.3,  78.1, -40.9
IWG1,2015-08-27T10:57:19.002, 26.078796, -80.154362,,  -12.7,    6.0,,  0.0,  0.0,  0.1,0.000,   -0.0, 119.1, 119.1,   0.0,  -0.7,  -0.5,,,  24.5, -80.0,  24.5,1013.030,,1023.185,,,, 91.3, -0.3,  78.1, -40.9
IWG1,2015-08-27T10:57:20.002, 26.078796, -80.154362,,  -12.5,    6.0,,  0.0,  0.0,  0.1,0.000,    0.0, 119.1, 119.1,   0.0,  -0.7,  -0.5,,,  24.5, -79.8,  24.5,1013.030,,1023.144,,,, 91.3, -0.3,  78.1, -40.9
IWG1,2015-08-27T10:57:21.002, 26.078796, -80.154362,,  -12.5,    5.0,,  0.0,  0.0,  0.1,0.000,   -0.0, 119.1, 119.1,   0.0,  -0.7,  -0.5,,,  24.5, -79.8,  24.5,1013.067,,1023.307,,,, 91.3, -0.3,  78.1, -40.9
IWG1,2015-08-27T10:57:22.002, 26.078796, -80.154362,,  -12.4,    5.0,,  0.0,  0.0,  0.1,0.000,   -0.0, 119.1, 119.1,   0.0,  -0.7,  -0.5,,,  24.5, -79.8,  24.5,1013.067,,1023.185,,,, 91.3, -0.3,  78.1, -40.9
IWG1,2015-08-27T10:57:23.002, 26.078796, -80.154362,,  -12.3,    5.0,,  0.0,  0.0,  0.1,0.000,   -0.0, 119.1, 119.1,   0.0,  -0.7,  -0.5,,,  24.5, -80.2,  24.5,1013.067,,1023.348,,,, 91.3, -0.2,  78.1, -40.9
IWG1,2015-08-27T10:57:24.001, 26.078796, -80.154362,,  -12.2,    5.0,,  0.0,  0.0,  0.1,0.000,   -0.0, 119.1, 119.1,   0.0,  -0.7,  -0.5,,,  24.5, -80.1,  24.5,1013.067,,1023.388,,,, 91.3, -0.2,  78.1, -40.9
IWG1,2015-08-27T10:57:25.001, 26.078796, -80.154362,,  -12.2,    5.0,,  0.0,  0.0,  0.1,0.000,   -0.0, 119.1, 119.1,   0.0,  -0.7,  -0.5,,,  24.5, -80.2,  24.5,1013.067,,1023.266,,,, 91.3, -0.2,  78.1, -40.9
IWG1,2015-08-27T10:57:26.002, 26.078796, -80.154362,,  -12.1,    5.0,,  0.0,  0.0,  0.1,0.000,    0.0, 119.1, 119.1,   0.0,  -0.7,  -0.5,,,  24.5, -80.1,  24.5,1013.067,,1022.941,,,, 91.3, -0.2,  78.1, -40.9
IWG1,2015-08-27T10:57:27.002, 26.078796, -80.154362,,  -12.0,    5.0,,  0.0,  0.0,  0.1,0.000,    0.0, 119.1, 119.1,   0.0,  -0.7,  -0.5,,,  24.5, -79.7,  24.5,1013.067,,1023.185,,,, 91.3, -0.2,  78.1, -40.9
IWG1,2015-08-27T10:57:28.001, 26.078796, -80.154362,,  -12.0,    5.0,,  0.0,  0.0,  0.1,0.000,    0.0, 119.1, 119.1,   0.0,  -0.7,  -0.5,,,  24.5, -80.2,  24.5,1013.067,,1023.144,,,, 91.3, -0.2,  78.1, -40.9
IWG1,2015-08-27T10:57:29.001, 26.078796, -80.154362,,  -12.0,    5.0,,  0.0,  0.0,  0.1,0.000,   -0.0, 119.1, 119.1,   0.0,  -0.7,  -0.5,,,  24.5, -80.2,  24.5,1013.067,,1023.063,,,, 91.3, -0.2,  78.1, -40.9
IWG1,2015-08-27T10:57:30.001, 26.078796, -80.154362,,  -11.9,    5.0,,  0.0,  0.0,  0.1,0.000,   -0.0, 119.1, 119.1,   0.0,  -0.7,  -0.5,,,  24.5, -80.2,  24.5,1013.067,,1023.144,,,, 91.3, -0.2,  78.1, -40.9
IWG1,2015-08-27T10:57:31.001, 26.078796, -80.154362,,  -11.9,    5.0,,  0.0,  0.0,  0.1,0.000,    0.0, 119.1, 119.1,   0.0,  -0.7,  -0.5,,,  24.5, -80.0,  24.5,1013.067,,1023.266,,,, 91.3, -0.2,  78.1, -40.9
IWG1,2015-08-27T10:57:32.002, 26.078796, -80.154362,,  -11.9,    5.0,,  0.0,  0.0,  0.1,0.000,   -0.0, 119.1, 119.1,   0.0,  -0.7,  -0.5,,,  24.5, -80.0,  24.5,1013.067,,1023.388,,,, 91.3, -0.2,  78.1, -40.9
IWG1,2015-08-27T10:57:33.001, 26.078796, -80.154362,,  -11.9,    5.0,,  0.0,  0.0,  0.1,0.000,   -0.0, 119.1, 119.1,   0.0,  -0.7,  -0.5,,,  24.5, -80.2,  24.5,1013.067,,1023.104,,,, 91.3, -0.2,  78.1, -40.9
IWG1,2015-08-27T10:57:34.002, 26.078796, -80.154362,,  -11.8,    5.0,,  0.0,  0.0,  0.1,0.000,    0.0, 119.1, 119.1,   0.0,  -0.7,  -0.5,,,  24.5, -79.9,  24.5,1013.067,,1023.063,,,, 91.3, -0.2,  78.1, -40.8
IWG1,2015-08-27T10:57:35.001, 26.078796, -80.154362,,  -11.8,    5.0,,  0.0,  0.0,  0.1,0.000,   -0.0, 119.1, 119.1,   0.0,  -0.7,  -0.5,,,  24.5, -80.0,  24.5,1013.067,,1023.266,,,, 91.3, -0.2,  78.1, -40.8
IWG1,2015-08-27T10:57:36.002, 26.078796, -80.154362,,  -11.8,    5.0,,  0.0,  0.0,  0.1,0.000,    0.0, 119.1, 119.1,   0.0,  -0.7,  -0.5,,,  24.5, -80.1,  24.5,1013.067,,1022.900,,,, 91.3, -0.2,  78.1, -40.8
IWG1,2015-08-27T10:57:37.001, 26.078796, -80.154362,,  -11.8,    5.0,,  0.0,  0.0,  0.1,0.000,    0.0, 119.1, 119.1,   0.0,  -0.7,  -0.5,,,  24.5, -80.0,  24.5,1013.067,,1023.063,,,, 91.3, -0.2,  78.1, -40.8
IWG1,2015-08-27T10:57:38.000, 26.078796, -80.154362,,  -11.9,    5.0,,  0.0,  0.0,  0.1,0.000,   -0.0, 119.1, 119.1,   0.0,  -0.7,  -0.5,,,  24.5, -80.2,  24.5,1013.067,,1023.063,,,, 91.3, -0.2,  78.1, -40.8
IWG1,2015-08-27T10:57:39.001, 26.078796, -80.154362,,  -11.9,    5.0,,  0.0,  0.0,  0.1,0.000,   -0.0, 119.1, 119.1,   0.0,  -0.7,  -0.5,,,  24.5, -80.1,  24.5,1013.067,,1023.348,,,, 91.3, -0.2,  78.1, -40.8
IWG1,2015-08-27T10:57:40.001, 26.078796, -80.154362,,  -11.9,    5.0,,  0.0,  0.0,  0.1,0.000,   -0.0, 119.1, 119.1,   0.0,  -0.7,  -0.5,,,  24.5, -80.1,  24.5,1013.067,,1023.429,,,, 91.3, -0.2,  78.1, -40.8
IWG1,2015-08-27T10:57:41.001, 26.078796, -80.154362,,  -11.9,    5.0,,  0.0,  0.0,  0.1,0.000,   -0.0, 119.1, 119.1,   0.0,  -0.7,  -0.5,,,  24.5, -80.1,  24.5,1013.067,,1023.063,,,, 91.2, -0.2,  78.1, -40.8
IWG1,2015-08-27T10:57:42.001, 26.078796, -80.154362,,  -11.9,    5.0,,  0.0,  0.0,  0.1,0.000,    0.0, 119.1, 119.1,   0.0,  -0.7,  -0.5,,,  24.5, -79.7,  24.5,1013.067,,1023.307,,,, 91.2, -0.2,  78.1, -40.8
IWG1,2015-08-27T10:57:43.001, 26.078796, -80.154362,,  -11.9,    5.0,,  0.0,  0.0,  0.1,0.000,   -0.0, 119.1, 119.1,   0.0,  -0.7,  -0.5,,,  24.5, -80.1,  24.5,1013.067,,1023.144,,,, 91.2, -0.2,  78.1, -40.8
IWG1,2015-08-27T10:57:44.000, 26.078796, -80.154362,,  -11.9,    5.0,,  0.0,  0.0,  0.1,0.000,   -0.0, 119.1, 119.1,   0.0,  -0.7,  -0.5,,,  24.5, -79.7,  24.5,1013.067,,1023.104,,,, 91.2, -0.2,  78.1, -40.8